GW6963 Weather Reports


time (UTC)temp
F
wind
direction
speed
knots
gust
knots
rain 1hr
in
rain 24hr
in
rain mn
in
humidity
%
barometer
mb
20260505041439 57 194 0.9 1.7 0.00 0.00 0.00 57 1009.9
20260505040937 57 287 0.9 0.9 0.00 0.00 0.00 56 1009.9
20260505040434 57 287 0.0 0.9 0.00 0.00 0.00 56 1009.9
20260505035931 57 185 0.9 1.7 0.00 0.00 0.00 55 1010.0
20260505035427 57 210 0.0 0.0 0.00 0.00 0.00 55 1009.7
20260505034924 57 231 0.0 0.9 0.00 0.00 0.00 54 1009.8
20260505034420 58 264 0.9 1.7 0.00 0.00 0.00 54 1009.9
20260505033918 58 161 0.9 0.9 0.00 0.00 0.00 53 1009.8
20260505033414 58 207 0.9 0.9 0.00 0.00 0.00 53 1009.9
20260505032913 58 281 0.9 3.5 0.00 0.00 0.00 52 1009.9
20260505032409 58 184 0.0 0.0 0.00 0.00 0.00 52 1009.7
20260505031906 58 314 1.7 7.0 0.00 0.00 0.00 51 1009.7
20260505031403 59 189 0.9 1.7 0.00 0.00 0.00 51 1009.7
20260505030900 59 178 1.7 1.7 0.00 0.00 0.00 50 1009.8
20260505030355 59 228 0.0 0.9 0.00 0.00 0.00 50 1009.8
20260505025851 59 297 0.0 3.5 0.00 0.00 0.00 50 1009.9
20260505025349 59 277 0.0 5.2 0.00 0.00 0.00 49 1009.9
20260505024848 59 277 0.9 1.7 0.00 0.00 0.00 49 1009.7
20260505024345 59 221 0.9 1.7 0.00 0.00 0.00 49 1009.7
20260505023842 59 178 1.7 1.7 0.00 0.00 0.00 49 1009.8
20260505023339 59 177 0.0 0.9 0.00 0.00 0.00 49 1009.7
20260505022836 59 157 0.9 3.5 0.00 0.00 0.00 48 1009.8
20260505022333 60 274 0.9 0.9 0.00 0.00 0.00 48 1009.7
20260505021830 60 174 1.7 1.7 0.00 0.00 0.00 48 1009.8
20260505021327 60 213 0.9 0.9 0.00 0.00 0.00 47 1009.9
20260505020822 60 200 0.0 0.9 0.00 0.00 0.00 47 1009.7
20260505020318 60 226 0.9 1.7 0.00 0.00 0.00 46 1009.7
20260505015815 60 344 1.7 1.7 0.00 0.00 0.00 46 1009.8
20260505015312 61 213 0.9 1.7 0.00 0.00 0.00 46 1009.6
20260505014810 61 205 0.9 1.7 0.00 0.00 0.00 45 1009.8
20260505014307 61 267 1.7 3.5 0.00 0.00 0.00 45 1009.7
20260505013803 61 201 0.0 0.9 0.00 0.00 0.00 44 1009.7
20260505013300 62 227 0.9 0.9 0.00 0.00 0.00 43 1009.4
20260505012759 62 161 0.0 2.6 0.00 0.00 0.00 43 1009.4
20260505012256 62 148 0.0 1.7 0.00 0.00 0.00 43 1009.2
20260505011751 62 139 1.7 2.6 0.00 0.00 0.00 43 1009.3
20260505011248 62 189 0.0 0.9 0.00 0.00 0.00 44 1009.2
20260505010744 62 182 0.0 1.7 0.00 0.00 0.00 43 1009.1
20260505010241 62 250 1.7 3.5 0.00 0.00 0.00 43 1009.0
20260505005737 63 217 0.0 0.9 0.00 0.00 0.00 42 1008.9
20260505005234 63 260 1.7 2.6 0.00 0.00 0.00 42 1008.7
20260505004731 63 175 0.9 1.7 0.00 0.00 0.00 42 1008.6
20260505004227 63 269 2.6 2.6 0.00 0.00 0.00 42 1008.4
20260505003725 63 263 0.0 3.5 0.00 0.00 0.00 42 1008.4
20260505003223 64 274 0.9 0.9 0.00 0.00 0.00 41 1008.3
20260505002719 64 277 3.5 5.2 0.00 0.00 0.00 41 1008.1
20260505002216 64 301 1.7 2.6 0.00 0.00 0.00 41 1007.8
20260505001714 64 270 1.7 3.5 0.00 0.00 0.00 40 1007.9
20260505001211 64 271 0.9 1.7 0.00 0.00 0.00 40 1007.8
20260505000708 65 107 2.6 5.2 0.00 0.00 0.00 39 1007.7
20260505000206 65 191 0.9 7.8 0.00 0.00 0.00 39 1007.6
20260504235702 65 239 0.9 1.7 0.00 0.00 0.00 38 1007.3
20260504235158 66 224 0.9 1.7 0.00 0.00 0.00 37 1007.5
20260504234656 66 155 0.0 1.7 0.00 0.00 0.00 36 1007.1
20260504234153 66 272 0.9 5.2 0.00 0.00 0.00 37 1007.2
20260504233649 67 177 1.7 3.5 0.00 0.00 0.00 36 1007.0
20260504233144 67 229 0.9 7.8 0.00 0.00 0.00 35 1006.9
20260504232643 67 197 1.7 7.0 0.00 0.00 0.00 35 1006.9
20260504232139 68 177 0.9 5.2 0.00 0.00 0.00 34 1006.7
20260504231636 68 178 0.9 2.6 0.00 0.00 0.00 34 1006.6
20260504231132 69 105 1.7 3.5 0.00 0.00 0.00 33 1006.6
20260504230628 70 194 1.7 2.6 0.00 0.00 0.00 31 1006.4
20260504230127 70 199 0.0 0.0 0.00 0.00 0.00 29 1006.4
20260504225625 71 305 0.0 2.6 0.00 0.00 0.00 28 1006.0
20260504225121 71 271 0.9 2.6 0.00 0.00 0.00 28 1006.0
20260504224618 71 298 0.9 2.6 0.00 0.00 0.00 28 1005.9
20260504224115 71 296 0.9 2.6 0.00 0.00 0.00 28 1005.8
20260504223612 71 284 0.9 5.2 0.00 0.00 0.00 27 1006.0
20260504223108 72 317 1.7 3.5 0.00 0.00 0.00 27 1005.8
20260504222605 72 286 1.7 1.7 0.00 0.00 0.00 27 1005.9
20260504222102 72 239 1.7 3.5 0.00 0.00 0.00 27 1006.0
20260504221559 72 282 0.9 1.7 0.00 0.00 0.00 26 1005.9
20260504221056 73 315 1.7 1.7 0.00 0.00 0.00 27 1005.9
20260504220552 73 258 0.9 3.5 0.00 0.00 0.00 26 1005.9
20260504220049 73 276 0.9 1.7 0.00 0.00 0.00 27 1006.1
20260504215546 73 194 3.5 3.5 0.00 0.00 0.00 26 1005.8
20260504215043 73 296 0.9 2.6 0.00 0.00 0.00 26 1005.9
20260504214539 73 268 2.6 3.5 0.00 0.00 0.00 26 1006.1
20260504214036 73 280 1.7 1.7 0.00 0.00 0.00 26 1005.9
20260504213532 73 298 0.9 2.6 0.00 0.00 0.00 26 1006.0
20260504213030 72 255 0.9 1.7 0.00 0.00 0.00 27 1005.9
20260504212525 72 289 1.7 2.6 0.00 0.00 0.00 27 1005.9
20260504212023 72 293 1.7 2.6 0.00 0.00 0.00 26 1005.9
20260504211520 72 148 3.5 6.1 0.00 0.00 0.00 26 1005.8
20260504211017 72 305 0.9 3.5 0.00 0.00 0.00 26 1006.0
20260504210514 72 187 0.9 2.6 0.00 0.00 0.00 26 1005.8
20260504210010 73 286 0.9 3.5 0.00 0.00 0.00 26 1005.7
20260504205508 74 217 1.7 8.7 0.00 0.00 0.00 25 1005.9
20260504205006 73 282 2.6 5.2 0.00 0.00 0.00 26 1005.8
20260504204504 73 283 0.9 3.5 0.00 0.00 0.00 26 1006.2
20260504204003 74 277 0.0 0.9 0.00 0.00 0.00 25 1005.8
20260504203500 75 286 3.5 3.5 0.00 0.00 0.00 24 1006.0
20260504202956 75 335 0.9 2.6 0.00 0.00 0.00 24 1005.8
20260504202453 76 290 0.9 6.1 0.00 0.00 0.00 23 1006.0
20260504201950 74 296 1.7 2.6 0.00 0.00 0.00 25 1005.8
20260504201447 74 245 5.2 7.0 0.00 0.00 0.00 23 1006.1
20260504200944 73 305 3.5 5.2 0.00 0.00 0.00 25 1006.0
20260504200441 74 92 1.7 5.2 0.00 0.00 0.00 23 1006.0
20260504195937 74 249 1.7 3.5 0.00 0.00 0.00 24 1006.0
20260504195433 75 257 2.6 7.8 0.00 0.00 0.00 23 1006.2
20260504194930 75 204 0.9 7.0 0.00 0.00 0.00 23 1006.1
20260504194426 75 324 0.9 7.0 0.00 0.00 0.00 23 1006.2
20260504193922 75 297 2.6 2.6 0.00 0.00 0.00 23 1006.2
20260504193420 76 301 2.6 3.5 0.00 0.00 0.00 22 1006.2
20260504192918 75 334 0.9 1.7 0.00 0.00 0.00 23 1006.0
20260504192415 75 276 2.6 5.2 0.00 0.00 0.00 22 1006.1
20260504191914 75 358 1.7 5.2 0.00 0.00 0.00 24 1006.1
20260504191411 75 290 1.7 5.2 0.00 0.00 0.00 23 1006.1
20260504190906 74 146 0.9 5.2 0.00 0.00 0.00 23 1006.1
20260504190403 74 311 2.6 5.2 0.00 0.00 0.00 24 1006.4
20260504185859 74 272 2.6 3.5 0.00 0.00 0.00 24 1006.3
20260504185357 74 285 3.5 5.2 0.00 0.00 0.00 23 1006.5
20260504184853 74 315 2.6 12.2 0.00 0.00 0.00 23 1006.3
20260504184348 74 206 0.9 3.5 0.00 0.00 0.00 23 1006.5
20260504183844 74 292 3.5 3.5 0.00 0.00 0.00 24 1006.6
20260504183342 73 275 1.7 3.5 0.00 0.00 0.00 24 1006.6
20260504182839 73 284 1.7 3.5 0.00 0.00 0.00 25 1006.6
20260504182337 73 292 2.6 3.5 0.00 0.00 0.00 24 1006.9
20260504181833 73 295 1.7 5.2 0.00 0.00 0.00 24 1006.6
20260504181331 72 186 0.9 5.2 0.00 0.00 0.00 25 1006.6
20260504180830 71 89 0.0 2.6 0.00 0.00 0.00 25 1006.6
20260504180328 71 16 3.5 7.8 0.00 0.00 0.00 26 1006.8
20260504175826 72 308 0.9 3.5 0.00 0.00 0.00 26 1006.8
20260504175322 71 325 1.7 6.1 0.00 0.00 0.00 27 1006.8
20260504174821 71 290 2.6 6.1 0.00 0.00 0.00 26 1007.0
20260504174318 70 312 0.9 1.7 0.00 0.00 0.00 27 1007.0
20260504173814 70 212 0.0 3.5 0.00 0.00 0.00 27 1006.9
20260504173311 70 16 2.6 5.2 0.00 0.00 0.00 27 1007.2
20260504172808 70 294 2.6 5.2 0.00 0.00 0.00 27 1007.3
20260504172305 70 276 2.6 5.2 0.00 0.00 0.00 29 1007.3
20260504171800 69 278 0.9 11.3 0.00 0.00 0.00 27 1006.8
20260504171258 69 298 1.7 3.5 0.00 0.00 0.00 26 1007.1
20260504170755 69 277 3.5 3.5 0.00 0.00 0.00 27 1007.2
20260504170252 69 300 1.7 2.6 0.00 0.00 0.00 27 1007.2
20260504160210 68 284 1.7 3.5 0.00 0.00 0.00 29 1007.7
20260504151138 66 294 1.7 3.5 0.00 0.00 0.00 31 1008.1
20260504150636 66 267 1.7 5.2 0.00 0.00 0.00 30 1008.5
20260504150132 66 312 0.9 2.6 0.00 0.00 0.00 32 1008.2
20260504141101 63 281 0.9 1.7 0.00 0.00 0.00 36 1008.6
20260504140557 62 280 0.9 7.8 0.00 0.00 0.00 35 1009.1
20260504130522 58 266 3.5 5.2 0.00 0.00 0.00 39 1009.6
20260504110409 48 281 0.9 1.7 0.00 0.00 0.00 51 1010.1
20260504100331 47 283 0.0 0.0 0.00 0.00 0.00 52 1010.1
20260504081725 45 288 0.0 0.0 0.00 0.00 0.00 57 1009.8
20260504081221 45 288 0.0 0.0 0.00 0.00 0.00 57 1009.9
20260504080718 45 287 0.9 0.9 0.00 0.00 0.00 57 1009.9
20260504080214 45 287 0.0 0.0 0.00 0.00 0.00 58 1010.0
20260504070142 44 287 0.0 0.0 0.00 0.00 0.00 57 1009.9
20260504050531 37 287 0.0 0.0 0.00 0.00 0.00 75 1009.9
20260504045525 37 287 0.0 0.0 0.00 0.00 0.00 74 1009.9